Retour au catalogue

STARLINK-30817

ActifCommunicationsVLEO
NORAD 58238·PAYLOAD·🇺🇸 United States

Lancé Nov 8, 2023 depuis Cape Canaveral Space Force Station

Loading…

Prochains Passages (prochaines 24 heures)

TLE

FraisSource: CelesTrak SupGP

Époque: Sep 14, 2026, 21:06 UTC

1 58238C 23171J   26257.87965278 -.00012161  00000+0 -44055-3 0  2574
2 58238  43.0007 297.0278 0001483 265.3683 174.0006 15.27577869    12

Suivez STARLINK-30817 en temps réel avec AllMySat

Download on the App Store